Find Starlink 31080

NORAD ID: 58603 Int'l Des: 2023-200 Owner: SPXS Country: US Constellation: starlink operational
LEOCIRCULAR

リアルタイム位置

3D地球を読み込み中...

Starlink 31080について

説明を読み込み中...

次回通過

Passes for default location (London). Set your location on the main map for personalized predictions.

高度履歴

Loading altitude history...

軌道要素

1 58603U 23200Q 26110.21281052 -.00000042 00000-0 80983-5 0 9990
2 58603 43.0022 294.1380 0001066 276.5649 83.5081 15.26738241129774
Epoch: Apr 20, 2026 • Age: 14 hours

現在のステータス

高度 497.0 km
速度 7.62 km/s
衛星直下点 -40.09°S, 44.51°E
打ち上げ日 Dec 19, 2023
運用期間 2.3 years
タイプ internet

技術仕様

分類 Payload
質量 730.00 kg
乾燥質量 700.00 kg
総質量 730.00 kg
長さ 0.30 m
直径 4.10 m
スパン 29.00 m
形状 Box + pan
製造者 SPXS
バスタイプ Starlink V2M
フェーズステータス In Orbit
所有者/国 SPXS/US

Most Searched